Regional Weather Roundup
Issued by NWS Goodland, KS

Home | Current Version | Previous Version | Graphics & Text | Print | Product List | Glossary On
Versions: 1 2 3 4 5 6 7 8 9 10 11 12 13 14 15 16 17 18 19 20 21 22 23 24 25 26 27 28 29 30 31 32 33 34 35 36 37 38 39 40 41 42 43 44 45 46 47 48 49 50
000
ASUS43 KGLD 211008
RWRGLD

GOODLAND FORECAST AREA HOURLY WEATHER ROUNDUP
NATIONAL WEATHER SERVICE GOODLAND KS
400 AM MDT MON AUG 21 2017

...OFFICIAL OBSERVATIONS...

CITY           SKY/WX    TMP DP  RH WIND       PRES   REMARKS
GOODLAND KS    PTCLDY    65  63  93 S10       29.99F
HILL CITY KS   PTCLDY    76  66  71 S14G20    29.96S
IMPERIAL NEB   CLEAR     64  61  90 CALM      29.97S
MCCOOK NEB     CLEAR     71  64  78 SW7       29.93F
AKRON CO       CLEAR     65  47  52 W12       30.04F
BURLINGTON CO  PTCLDY    64  61  90 SW8       30.02F
LIMON CO       CLOUDY    55  48  77 N6        30.10F
$$

...UNOFFICIAL OBSERVATIONS...

CITY           SKY/WX    TMP DP  RH WIND       PRES   REMARKS
LENORA KS        N/A     71  32  23 S10         N/A
NORTON KS      CLEAR     73  61  64 S10       29.95
TRENTON NEB      N/A     67  32  27 CALM        N/A
KIT CARSON CO    N/A     63  58  84 CALM        N/A
YUMA CO        FAIR      59  48  67 CALM      30.01F
$$




USA.gov is the U.S. government's official web portal to all federal, state and local government web resources and services.